(43) Ariadne
(43) Ariadne
Epoch 2007 Oct. 27.0 TT = JDT 2454400.5 Goffin
M 312.52979 (2000.0) P Q
n 0.30141305 Peri. 15.96988 +0.18865434 +0.98019325
a 2.2030686 Node 264.93367 -0.90749825 +0.15055644
e 0.1681448 Incl. 3.46805 -0.37530850 +0.12866216
P 3.27 H 7.93 G 0.11 U 0
From 1358 observations at 89 oppositions, 1857-2004, mean residual 0".54.
An explanation of the orbital
elements is available.These orbital elements are also available in forms suitable for loading into a number of popular planetarium-type software programs.
Personalized ephemerides for this object (and others) can be generated using the MPES.
Date TT R. A. (2000) Decl. Delta r Elong. Phase V 2008 06 09 22 51.40 -03 54.9 1.469 1.867 95.7 32.8 11.6 2008 06 14 22 57.50 -03 03.0 1.425 1.872 98.8 32.4 11.5 2008 06 19 23 03.06 -02 13.5 1.382 1.877 101.9 32.0 11.4 2008 06 24 23 08.05 -01 26.8 1.340 1.883 105.2 31.4 11.3 2008 06 29 23 12.43 -00 43.3 1.299 1.888 108.7 30.7 11.3 2008 07 04 23 16.12 -00 03.4 1.258 1.895 112.3 29.8 11.2 2008 07 09 23 19.10 +00 32.4 1.220 1.901 116.1 28.7 11.1 2008 07 14 23 21.32 +01 03.8 1.182 1.908 120.2 27.4 11.0 2008 07 19 23 22.75 +01 30.3 1.147 1.915 124.4 26.0 10.9 2008 07 24 23 23.34 +01 51.4 1.114 1.922 128.8 24.3 10.8 2008 07 29 23 23.07 +02 06.9 1.084 1.929 133.5 22.4 10.7 2008 08 03 23 21.93 +02 16.2 1.057 1.937 138.4 20.3 10.5 2008 08 08 23 19.95 +02 19.1 1.033 1.944 143.6 18.0 10.4 2008 08 13 23 17.18 +02 15.7 1.014 1.952 148.9 15.6 10.3 2008 08 18 23 13.71 +02 06.1 0.999 1.961 154.3 12.9 10.2 2008 08 23 23 09.66 +01 50.6 0.989 1.969 159.9 10.2 10.1 2008 08 28 23 05.16 +01 29.8 0.984 1.978 165.3 7.4 9.9 2008 09 02 23 00.40 +01 04.6 0.984 1.986 170.3 4.9 9.8 2008 09 07 22 55.59 +00 36.1 0.991 1.995 173.1 3.5 9.8 2008 09 12 22 50.92 +00 05.7 1.003 2.004 171.3 4.4 9.9 2008 09 17 22 46.59 -00 25.4 1.022 2.013 166.7 6.6 10.0 2008 09 22 22 42.75 -00 55.9 1.046 2.022 161.4 9.1 10.2 2008 09 27 22 39.52 -01 24.7 1.075 2.032 155.9 11.6 10.4 2008 10 02 22 37.03 -01 50.9 1.110 2.041 150.5 14.0 10.5 2008 10 07 22 35.33 -02 13.5 1.149 2.051 145.1 16.2 10.7 2008 10 12 22 34.45 -02 32.1 1.193 2.060 140.0 18.1 10.9 2008 10 17 22 34.40 -02 46.3 1.241 2.070 135.0 19.9 11.0 2008 10 22 22 35.14 -02 56.1 1.293 2.080 130.2 21.4 11.2 2008 10 27 22 36.64 -03 01.2 1.348 2.089 125.6 22.8 11.3 2008 11 01 22 38.87 -03 01.9 1.406 2.099 121.2 23.9 11.5 2008 11 06 22 41.77 -02 58.0 1.466 2.109 116.9 24.8 11.6 2008 11 11 22 45.29 -02 49.9 1.529 2.119 112.8 25.5 11.7 2008 11 16 22 49.37 -02 37.7 1.593 2.129 108.8 26.1 11.8